Satellite-Ground Cal/Val Site Overpasses Predictions

Prediction of Satellite NPP Overpassing Cal/Val Site: Antarctic Dome C

Ground Cal/Val Site Location: Latitude: -75.10, Longitude: 123.35; Satellite-Ground Site NADIR distance within 100 km.

Table of predicted overpasses for the next 14.0 days since TLE Epoch: 4/17/2016
Interval Starting Time Ending Time Minimum Distance Time Minimum Distance (km)
1 04/18/2016 07:38:43 04/18/2016 07:39:10 04/18/2016 07:38:56 35.93
2 04/19/2016 07:19:57 04/19/2016 07:20:17 04/19/2016 07:20:07 74.11
3 04/21/2016 15:02:13 04/21/2016 15:02:37 04/21/2016 15:02:25 56.13
4 04/22/2016 14:43:22 04/22/2016 14:43:47 04/22/2016 14:43:35 52.94
5 04/23/2016 07:45:04 04/23/2016 07:45:24 04/23/2016 07:45:14 71.44
6 04/24/2016 07:26:11 04/24/2016 07:26:38 04/24/2016 07:26:24 36.52
7 04/26/2016 15:08:37 04/26/2016 15:08:46 04/26/2016 15:08:42 94.09
8 04/27/2016 14:49:38 04/27/2016 14:50:07 04/27/2016 14:49:53 17.28


NCC Satellite Cal/Val Overpasses Prediction Service
